Tracking 19854 objects as of 21-Sep-2019
HD Live streaming from Space Station
objects crossing your sky now

COSMOS 872

Track COSMOS 872 now!
10-day predictions
COSMOS 872 is classified as:


NORAD ID: 9589
Int'l Code: 1976-118B
Perigee: 1,405.4 km
Apogee: 1,470.8 km
Inclination: 74.0 °
Period: 114.5 minutes
Semi major axis: 7809 km
RCS: 0.7031 m2 (medium)
Launch date: December 7, 1976
Source: Commonwealth of Independent States (former USSR) (CIS)
Launch site: PLESETSK MISSILE AND SPACE COMPLEX (PKMTR)
aabbcc
Your satellite tracking list
Your tracking list is empty




NASA's NSSDC Master Catalog

Two Line Element Set (TLE):
1  9589U 76118B   19263.86795017 -.00000005 +00000-0 +64225-4 0  9997
2  9589 074.0316 045.0379 0041861 005.9832 108.5416 12.58064478964941
Source of the keplerian elements: AFSPC